Weather History for Baker, MT

Change the Weather History Date:

Friday, March 7, 2014

  Actual Average Record
Temperature  
Mean Temperature 21 °F -  
Max Temperature 28 °F 40 °F 62 °F (2007)
Min Temperature 14 °F 19 °F -11 °F (1998)
Degree Days  
Heating Degree Days 44    
Moisture  
Dew Point 16 °F    
Average Humidity 83    
Maximum Humidity 100    
Minimum Humidity 66    
Precipitation  
Precipitation 0.00 in - - ()
Sea Level Pressure  
Sea Level Pressure 30.15 in    
Wind  
Wind Speed 11 mph (NNW)    
Max Wind Speed 20 mph    
Max Gust Speed -    
Visibility 8 miles    
Events Snow    
Averages and records for this station are not official NWS values.
T = Trace of Precipitation, MM = Missing Value Source: NWS Daily Summary

Daily Weather History Graph

Daily Weather History Graph

Search for Another Location

Airport:

Trip Planner

Search our weather history database for the weather conditions in past years. The results will help you decide how hot, cold, wet, or windy it might be!

Date:

Astronomy

Mar. 07, 2014 Rise Set
Actual Time 6:24 AM MST 5:51 PM MST
Civil Twilight 5:54 AM MST 6:21 PM MST
Nautical Twilight 5:20 AM MST 6:56 PM MST
Astronomical Twilight 4:45 AM MST 7:31 PM MST
Moon 9:58 AM MST (3/7) 12:19 AM MST (3/7)
Length of Visible Light 12h 26m
Length of Day
11h 26m
Waxing Crescent, 42% of the Moon is Illuminated
Mar 7
Waxing Crescent
Mar 8
First Quarter
Mar 16
Full
Mar 23
Last Quarter
Mar 30
New

Hourly Weather History & Observations

Time (MST) Temp. Windchill Dew Point Humidity Pressure Visibility Wind Dir Wind Speed Gust Speed Precip Events Conditions
12:32 AM 21.0 °F 5.7 °F 18.0 °F 88% 29.94 in 10.0 mi NNW 19.6 mph - N/A   Overcast
12:51 AM 19.9 °F 4.3 °F 16.0 °F 85% 30.01 in 10.0 mi NNW 19.6 mph - N/A   Overcast
1:15 AM 19.0 °F 4.5 °F 14.0 °F 81% 29.96 in 10.0 mi NNW 16.1 mph - N/A   Overcast
1:51 AM 19.0 °F 4.5 °F 14.0 °F 81% 30.05 in 10.0 mi NNW 16.1 mph - N/A   Overcast
2:09 AM 18.0 °F 2.6 °F 15.1 °F 88% 29.99 in 6.0 mi NNW 17.3 mph - 0.00 in Snow Light Snow
2:40 AM 18.0 °F 3.6 °F 15.1 °F 88% 30.00 in 9.0 mi NW 15.0 mph - 0.00 in   Overcast
2:51 AM 17.1 °F 2.0 °F 14.0 °F 88% 30.07 in 10.0 mi NW 16.1 mph - 0.00 in   Overcast
3:51 AM 16.0 °F 2.3 °F 12.9 °F 88% 30.10 in 10.0 mi NNW 12.7 mph - N/A   Overcast
4:51 AM 16.0 °F 3.6 °F 12.0 °F 84% 30.11 in 10.0 mi NNW 10.4 mph - N/A   Overcast
5:51 AM 15.1 °F 1.8 °F 12.0 °F 88% 30.14 in 8.0 mi NNW 11.5 mph - 0.00 in   Overcast
6:51 AM 14.0 °F 2.9 °F 10.9 °F 88% 30.18 in 9.0 mi NNW 8.1 mph - N/A   Overcast
7:10 AM 14.0 °F 2.9 °F 10.9 °F 88% 30.08 in 10.0 mi North 8.1 mph - N/A   Scattered Clouds
7:22 AM 14.0 °F 2.9 °F 10.9 °F 88% 30.08 in 8.0 mi North 8.1 mph - N/A   Mostly Cloudy
7:51 AM 15.1 °F 4.2 °F 12.0 °F 88% 30.21 in 3.0 mi North 8.1 mph - 0.00 in Snow Light Snow
7:58 AM 15.1 °F 5.2 °F 10.9 °F 84% 30.10 in 2.0 mi NNW 6.9 mph - 0.00 in Snow Light Snow
8:06 AM 15.1 °F 6.4 °F 10.9 °F 84% 30.10 in 1.8 mi North 5.8 mph - 0.00 in Snow Light Snow
8:23 AM 15.1 °F 7.7 °F 10.9 °F 84% 30.10 in 2.0 mi North 4.6 mph - 0.00 in Snow Light Snow
8:34 AM 16.0 °F 7.4 °F 10.9 °F 81% 30.11 in 3.0 mi NNW 5.8 mph - 0.00 in Snow Light Snow
8:51 AM 16.0 °F 6.3 °F 10.9 °F 81% 30.23 in 4.0 mi NNE 6.9 mph - 0.00 in Snow Light Snow
9:24 AM 17.1 °F - 10.9 °F 77% 30.13 in 7.0 mi Calm Calm - 0.00 in   Overcast
9:51 AM 18.0 °F 12.7 °F 10.9 °F 74% 30.25 in 5.0 mi Variable 3.5 mph - 0.00 in Snow Light Snow
10:28 AM 19.9 °F 11.1 °F 12.9 °F 74% 30.13 in 10.0 mi NW 6.9 mph - 0.00 in   Overcast
10:42 AM 19.9 °F 13.4 °F 12.9 °F 74% 30.14 in 10.0 mi NNE 4.6 mph - 0.00 in   Overcast
10:48 AM 19.4 °F 11.5 °F 12.2 °F 74% 30.14 in 10.0 mi NNE 5.8 mph - 0.00 in   Overcast
10:51 AM 19.0 °F 11.1 °F 12.0 °F 74% 30.26 in 10.0 mi NNW 5.8 mph - 0.00 in   Overcast
11:51 AM 19.9 °F 13.4 °F 12.0 °F 71% 30.25 in 10.0 mi NW 4.6 mph - N/A   Overcast
12:51 PM 21.0 °F 16.2 °F 12.9 °F 71% 30.23 in 10.0 mi Variable 3.5 mph - N/A   Overcast
1:51 PM 25.0 °F 19.3 °F 15.1 °F 66% 30.22 in 10.0 mi Variable 4.6 mph - N/A   Mostly Cloudy
2:51 PM 27.0 °F - 18.0 °F 69% 30.22 in 10.0 mi Calm Calm - N/A   Overcast
3:51 PM 28.0 °F 22.8 °F 19.0 °F 69% 30.21 in 10.0 mi NE 4.6 mph - N/A   Overcast
4:51 PM 28.0 °F 20.8 °F 21.0 °F 75% 30.22 in 10.0 mi East 6.9 mph - N/A   Overcast
5:51 PM 28.0 °F 20.0 °F 21.9 °F 78% 30.24 in 10.0 mi SSE 8.1 mph - N/A   Overcast
6:51 PM 26.1 °F 18.4 °F 21.9 °F 84% 30.25 in 10.0 mi SSE 6.9 mph - N/A   Mostly Cloudy
7:14 PM 26.1 °F 17.6 °F 21.9 °F 84% 30.13 in 10.0 mi SSE 8.1 mph - N/A   Overcast
7:25 PM 26.1 °F 16.8 °F 23.0 °F 88% 30.12 in 10.0 mi SSE 9.2 mph - N/A   Overcast
7:51 PM 27.0 °F 19.5 °F 23.0 °F 85% 30.24 in 10.0 mi SSE 6.9 mph - N/A   Overcast
8:18 PM 27.0 °F - 24.1 °F 89% 30.13 in 10.0 mi Calm Calm - N/A   Overcast
8:40 PM 28.0 °F - 25.0 °F 88% 30.14 in 10.0 mi Calm Calm - N/A   Overcast
8:51 PM 28.0 °F - 25.0 °F 88% 30.26 in 10.0 mi Calm Calm - N/A   Overcast
9:51 PM 26.1 °F 21.9 °F 24.1 °F 92% 30.25 in 10.0 mi WSW 3.5 mph - N/A   Partly Cloudy
10:51 PM 21.9 °F 15.7 °F 21.9 °F 100% 30.24 in 10.0 mi South 4.6 mph - N/A   Clear
11:51 PM 24.1 °F - 24.1 °F 100% 30.25 in 10.0 mi Calm Calm - N/A   Clear